Location: Czu?�w
(50.1404°N, 18.9919°E)
Time: 03:36:24
(UTC+00:00)

Cosmos 1980 Rocket - Pass Details

Date: 27 October 2020
Orbit: 831 x 848 km, 71.0° (Epoch: 24 November)

Event Time Altitude Azimuth Distance (km) Brightness Sun altitude
Rises 18:02:28 0° 192° (SSW) 3,378 5.4 -25.1°
Reaches altitude 10° 18:04:56 10° 189° (S) 2,445 4.6 -25.5°
Enters shadow 18:07:29 27° 178° (S) 1,555 3.4 -25.9°
